STARLINK-33978, 63832

Orbit data source: Space-Track

STARLINK-33978, 63832 is a payload satellite owned by SpaceX/Seattle (US) in LEO that was launched on Sun, 04 May 2025 UTC via an FALCON 9 launch vehicle from the Air Force Eastern Test Range (AFETR). Payload-class satellites include a variety of spacecraft equipped with specific instruments for various scientific and technological missions. These include communications satellites like Starlink; space stations such as the ISS; scientific satellites like the Hubble; Earth observation satellites from companies like Planet Labs, Umbra, and HawkEye 360; GPS; miniature CubeSats for education and research; and military/defense satellites.

Loading next visibility...
Identifier
63832, 2025-092AE
Orbit
LEO
Country
Flag of USUS
Related business
Manufacturer
SpaceX/Seattle
Mission
Operational Commercial Communications
Bus & Motor
STARLINK V2MO, Unknown motor
Mass
575 kg wet, ~530 kg dry
Launch date (UTC)
2025-05-04 (1 year ago)
Launch vehicle
FALCON 9
Launch site
Air Force Eastern Test Range (AFETR)
Object type
Payload
Rocket body
Debris
Shape & HBR
Box + 1 Pan, 17.7 m
Radar Cross Section
41.120 m², Large (>1 m²)

Expand to show TLE details & history
Last TLE update: 23 hours ago

TLE from 23 hours ago
0 STARLINK-33978
1 63832U 25092AE  26255.21891529  .00011027  00000-0  40962-3 0  9992
2 63832  43.0039 198.9704 0001395 258.2862 101.7834 15.27580655 77194
Epoch: 2026-09-12T05:15Z
TLE epoch observation values (Epoch: 2026-09-12T05:15:14.281Z)
Latitude
0.00005°
Longitude
128.92989°
Altitude
483.019 km
Speed
7.626 km/s
True Right ascension
13h 15m 52s
True Declination
0° 00' 00"
Sunlit
Object was in daylight at epoch
Visualization orbit readout
Latitude
Unknown
Longitude
Unknown
Altitude
Unknown
Speed
Unknown
Apparent Right ascension
Unknown
Apparent Declination
Unknown
Sunlit
N/A
Visualization observer readout
Local Sidereal Time
20:37:01
Azimuth
Unknown
Elevation
Unknown
Doppler factor
Unknown
Orbital elements
Apogee altitude
485.949 km
Perigee altitude
484.034 km
Semi-major axis
6,863.129 km
Eccentricity
0.00014
Inclination
43.0039°
RAAN
198.9704°
Arg. of periapsis
258.2862°
True anomaly
101.79905°
Mean anomaly
101.7834°
Eccentric anomaly
101.79122°
Mean motion
3.81733 °/min
Orbital period
94.31 mins
BSTAR
0.00040962
Loading maneuver chart data...
Computing Atmospheric mass density...
Loading historical data...
Loading historical data...
Loading historical data...
Loading historical data...
Loading historical data...
Loading historical data...
Loading historical data...

Documentation

Showing up to 5 results
|